Location: North Evanston
(42.0634°N, 87.6976°W)
Time: 12:08:05
(UTC+00:00)

Injun/Solrad 3 - Pass Details

Date: 10 May 2026
Orbit: 867 x 989 km, 66.8° (Epoch: 11 June)

Event Time Altitude Azimuth Distance (km) Brightness Sun altitude
Rises 23:17:48 0° 234° (SW) 3,507 11.6 17.2°
Reaches altitude 10° 23:20:26 10° 242° (WSW) 2,588 11.2 16.7°
Maximum altitude 23:26:01 39° 310° (NW) 1,370 9.9 15.7°
Drops below altitude 10° 23:31:49 10° 18° (NNE) 2,681 10.3 14.6°
Sets 23:34:36 0° 26° (NNE) 3,648 10.8 14.1°
